Location: Castiglione Fibocchi
(43.5333°N, 11.7667°E)
Time: 09:41:23
(UTC+00:00)

SL-24 R/B - Pass Details

Date: 15 August 2020
Orbit: 717 x 1116 km, 91.9° (Epoch: 18 September)

Event Time Altitude Azimuth Distance (km) Brightness Sun altitude
Exits shadow 01:12:57 81° 315° (NW) 778 4.4 -26.7°
Drops below altitude 10° 01:18:02 10° 354° (N) 2,403 7.7 -26.3°
Sets 01:20:31 0° 355° (N) 3,396 8.6 -26.0°
